BTK6175 WABI-WAPP

Flight info

Callsign BTK6175
Flight time 1h 14m
Altitude 36000
Route KMN W65 SOBIA
Aircraft A320/M-SDE3FGHIRWY/LB1

Departure

Time 2026-05-09 10:06
Airport Douw Aturure Airport (WABI)

Arrival

Time 2026-05-09 11:20
Airport Pattimura International Airport (WAPP)
Time Latitude Longitude Altitude Speed Heading
2026-05-09 09:49 -3.36757 135.49795 43 ft 0 kts 227°
2026-05-09 10:02 -3.36760 135.49793 42 ft 3 kts 227°
2026-05-09 10:02 -3.36789 135.49770 42 ft 1 kts 162°
2026-05-09 10:02 -3.36787 135.49777 42 ft 1 kts 85°
2026-05-09 10:03 -3.36781 135.49778 42 ft 1 kts 18°
2026-05-09 10:03 -3.36772 135.49769 42 ft 7 kts 321°
2026-05-09 10:03 -3.36769 135.49685 43 ft 14 kts 248°
2026-05-09 10:03 -3.36813 135.49670 44 ft 9 kts 181°
2026-05-09 10:04 -3.36916 135.49695 44 ft 16 kts 160°
2026-05-09 10:04 -3.37029 135.49735 43 ft 18 kts 161°
2026-05-09 10:04 -3.37112 135.49764 41 ft 20 kts 161°
2026-05-09 10:04 -3.37296 135.49826 41 ft 23 kts 161°
2026-05-09 10:05 -3.37379 135.49861 40 ft 1 kts 240°
2026-05-09 10:05 -3.37367 135.49856 39 ft 4 kts 339°
2026-05-09 10:05 -3.37341 135.49844 40 ft 6 kts 336°
2026-05-09 10:05 -3.37196 135.49793 43 ft 48 kts 341°
2026-05-09 10:06 -3.36622 135.49594 40 ft 129 kts 341°
2026-05-09 10:06 -3.35947 135.49359 109 ft 169 kts 341°
2026-05-09 10:06 -3.34807 135.48950 867 ft 178 kts 340°
2026-05-09 10:06 -3.33618 135.48509 1748 ft 188 kts 341°
2026-05-09 10:07 -3.32345 135.48047 2307 ft 205 kts 340°
2026-05-09 10:07 -3.30930 135.47528 2573 ft 227 kts 335°
2026-05-09 10:07 -3.29673 135.46481 2814 ft 257 kts 303°
2026-05-09 10:07 -3.29079 135.44703 3420 ft 274 kts 273°
2026-05-09 10:08 -3.29369 135.42845 4242 ft 278 kts 247°
2026-05-09 10:08 -3.30418 135.41214 5101 ft 281 kts 230°
2026-05-09 10:08 -3.31694 135.39726 5994 ft 282 kts 229°
2026-05-09 10:08 -3.33005 135.38252 6871 ft 285 kts 228°
2026-05-09 10:09 -3.34331 135.36756 7673 ft 290 kts 229°
2026-05-09 10:09 -3.35673 135.35234 8457 ft 294 kts 229°
2026-05-09 10:09 -3.37035 135.33690 9217 ft 298 kts 229°
2026-05-09 10:09 -3.38417 135.32123 9960 ft 302 kts 229°
2026-05-09 10:10 -3.39840 135.30506 10329 ft 321 kts 229°
2026-05-09 10:10 -3.41365 135.28769 10514 ft 343 kts 229°
2026-05-09 10:10 -3.42973 135.26935 10935 ft 355 kts 229°
2026-05-09 10:10 -3.44615 135.25062 11579 ft 359 kts 228°
2026-05-09 10:11 -3.46271 135.23170 12229 ft 364 kts 229°
2026-05-09 10:11 -3.47947 135.21255 12905 ft 367 kts 229°
2026-05-09 10:11 -3.49635 135.19326 13543 ft 371 kts 228°
2026-05-09 10:11 -3.51336 135.17378 14180 ft 374 kts 228°
2026-05-09 10:12 -3.53053 135.15408 14808 ft 377 kts 229°
2026-05-09 10:12 -3.54792 135.13412 15435 ft 381 kts 229°
2026-05-09 10:12 -3.56540 135.11404 16050 ft 384 kts 228°
2026-05-09 10:12 -3.58300 135.09380 16594 ft 388 kts 228°
2026-05-09 10:13 -3.60080 135.07337 17151 ft 391 kts 229°
2026-05-09 10:13 -3.61873 135.05270 17730 ft 395 kts 229°
2026-05-09 10:13 -3.63680 135.03187 18288 ft 398 kts 228°
2026-05-09 10:13 -3.65498 135.01093 18809 ft 399 kts 229°
2026-05-09 10:14 -3.67328 134.98987 19278 ft 403 kts 228°
2026-05-09 10:14 -3.69179 134.96861 19745 ft 406 kts 229°
2026-05-09 10:14 -3.71042 134.94721 20203 ft 409 kts 229°
2026-05-09 10:14 -3.72921 134.92568 20650 ft 412 kts 229°
2026-05-09 10:15 -3.74817 134.90395 21099 ft 415 kts 229°
2026-05-09 10:15 -3.76724 134.88211 21524 ft 418 kts 229°
2026-05-09 10:15 -3.78643 134.86014 21929 ft 421 kts 229°
2026-05-09 10:15 -3.80577 134.83799 22325 ft 424 kts 229°
2026-05-09 10:16 -3.82521 134.81574 22708 ft 426 kts 229°
2026-05-09 10:16 -3.84480 134.79333 23090 ft 429 kts 229°
2026-05-09 10:16 -3.86449 134.77082 23461 ft 431 kts 229°
2026-05-09 10:16 -3.88432 134.74816 23819 ft 434 kts 229°
2026-05-09 10:17 -3.90396 134.72570 24160 ft 436 kts 229°
2026-05-09 10:17 -3.92401 134.70279 24505 ft 438 kts 229°
2026-05-09 10:17 -3.94229 134.67833 24819 ft 441 kts 240°
2026-05-09 10:17 -3.95366 134.64990 25137 ft 443 kts 257°
2026-05-09 10:18 -3.95669 134.61919 25428 ft 445 kts 273°
2026-05-09 10:18 -3.95094 134.58869 25720 ft 447 kts 288°
2026-05-09 10:18 -3.94080 134.55920 26017 ft 450 kts 289°
2026-05-09 10:18 -3.93045 134.52956 26325 ft 452 kts 289°
2026-05-09 10:19 -3.92006 134.49979 26623 ft 454 kts 289°
2026-05-09 10:19 -3.90969 134.46991 26901 ft 455 kts 289°
2026-05-09 10:19 -3.89932 134.43986 27182 ft 458 kts 289°
2026-05-09 10:19 -3.88894 134.40962 27459 ft 460 kts 289°
2026-05-09 10:20 -3.87853 134.37929 27747 ft 462 kts 289°
2026-05-09 10:20 -3.86805 134.34886 28026 ft 463 kts 289°
2026-05-09 10:20 -3.85751 134.31832 28289 ft 465 kts 289°
2026-05-09 10:20 -3.84694 134.28767 28537 ft 467 kts 289°
2026-05-09 10:21 -3.83634 134.25689 28789 ft 469 kts 289°
2026-05-09 10:21 -3.82568 134.22595 29041 ft 470 kts 290°
2026-05-09 10:21 -3.81496 134.19496 29275 ft 472 kts 290°
2026-05-09 10:21 -3.80420 134.16385 29507 ft 474 kts 290°
2026-05-09 10:22 -3.79340 134.13261 29730 ft 476 kts 290°
2026-05-09 10:22 -3.78258 134.10132 29964 ft 477 kts 290°
2026-05-09 10:22 -3.77168 134.06987 30184 ft 478 kts 290°
2026-05-09 10:22 -3.76077 134.03837 30397 ft 480 kts 290°
2026-05-09 10:23 -3.74983 134.00676 30608 ft 482 kts 290°
2026-05-09 10:23 -3.73888 133.97504 30910 ft 481 kts 290°
2026-05-09 10:23 -3.72798 133.94344 31224 ft 480 kts 290°
2026-05-09 10:23 -3.71707 133.91190 31546 ft 479 kts 290°
2026-05-09 10:24 -3.70617 133.88041 31866 ft 479 kts 290°
2026-05-09 10:24 -3.69528 133.84892 32180 ft 478 kts 290°
2026-05-09 10:24 -3.68440 133.81750 32505 ft 477 kts 290°
2026-05-09 10:24 -3.67355 133.78615 32821 ft 477 kts 290°
2026-05-09 10:25 -3.66288 133.75523 33129 ft 476 kts 290°
2026-05-09 10:25 -3.65216 133.72392 33438 ft 475 kts 288°
2026-05-09 10:25 -3.64468 133.69175 33747 ft 475 kts 278°
2026-05-09 10:25 -3.64237 133.65885 34053 ft 475 kts 270°
2026-05-09 10:26 -3.64283 133.62578 34346 ft 474 kts 270°
2026-05-09 10:26 -3.64323 133.59282 34643 ft 473 kts 270°
2026-05-09 10:26 -3.64355 133.55992 34930 ft 472 kts 270°
2026-05-09 10:26 -3.64387 133.52706 35214 ft 471 kts 270°
2026-05-09 10:27 -3.64421 133.49429 35479 ft 470 kts 270°
2026-05-09 10:27 -3.64454 133.46159 35747 ft 470 kts 270°
2026-05-09 10:27 -3.64487 133.42891 35852 ft 469 kts 270°
2026-05-09 10:28 -3.64555 133.36374 35862 ft 468 kts 270°
2026-05-09 10:28 -3.64629 133.29863 35874 ft 467 kts 270°
2026-05-09 10:29 -3.64704 133.23360 35873 ft 467 kts 270°
2026-05-09 10:29 -3.64773 133.16856 35871 ft 467 kts 270°
2026-05-09 10:30 -3.64837 133.10357 35862 ft 467 kts 270°
2026-05-09 10:30 -3.64904 133.03847 35871 ft 468 kts 270°
2026-05-09 10:31 -3.64971 132.97336 35882 ft 468 kts 270°
2026-05-09 10:31 -3.65042 132.90822 35885 ft 468 kts 270°
2026-05-09 10:32 -3.65111 132.84304 35886 ft 468 kts 270°
2026-05-09 10:32 -3.65179 132.77791 35888 ft 468 kts 270°
2026-05-09 10:33 -3.65241 132.71276 35888 ft 468 kts 270°
2026-05-09 10:33 -3.65306 132.64770 35887 ft 467 kts 270°
2026-05-09 10:34 -3.65374 132.58265 35887 ft 467 kts 270°
2026-05-09 10:34 -3.65464 132.48564 35884 ft 467 kts 270°
2026-05-09 10:35 -3.65528 132.42067 35883 ft 466 kts 270°
2026-05-09 10:35 -3.65590 132.35582 35882 ft 466 kts 270°
2026-05-09 10:36 -3.65659 132.29098 35881 ft 466 kts 270°
2026-05-09 10:36 -3.65719 132.22607 35881 ft 466 kts 270°
2026-05-09 10:37 -3.65782 132.16121 35882 ft 466 kts 270°
2026-05-09 10:37 -3.65842 132.09630 35882 ft 466 kts 270°
2026-05-09 10:38 -3.65906 132.03138 35880 ft 466 kts 270°
2026-05-09 10:38 -3.65922 131.96652 35876 ft 466 kts 271°
2026-05-09 10:39 -3.65830 131.90167 35880 ft 465 kts 271°
2026-05-09 10:39 -3.65717 131.83693 35877 ft 465 kts 271°
2026-05-09 10:40 -3.65635 131.77219 35863 ft 465 kts 271°
2026-05-09 10:40 -3.65583 131.70745 35863 ft 465 kts 271°
2026-05-09 10:41 -3.65529 131.64263 35866 ft 465 kts 271°
2026-05-09 10:41 -3.65459 131.57791 35859 ft 466 kts 271°
2026-05-09 10:42 -3.65387 131.51313 35873 ft 465 kts 271°
2026-05-09 10:42 -3.65308 131.44829 35873 ft 465 kts 271°
2026-05-09 10:43 -3.65234 131.38349 35870 ft 465 kts 271°
2026-05-09 10:43 -3.65163 131.31874 35872 ft 465 kts 271°
2026-05-09 10:44 -3.65094 131.25439 35868 ft 465 kts 271°
2026-05-09 10:44 -3.65021 131.18966 35865 ft 465 kts 271°
2026-05-09 10:46 -3.64850 131.03232 35862 ft 420 kts 271°
2026-05-09 10:46 -3.64817 131.00352 35859 ft 407 kts 271°
2026-05-09 10:46 -3.64782 130.97540 35852 ft 402 kts 271°
2026-05-09 10:47 -3.64715 130.91974 35858 ft 399 kts 271°
2026-05-09 10:47 -3.64649 130.86430 35862 ft 398 kts 271°
2026-05-09 10:48 -3.64582 130.80875 35859 ft 403 kts 271°
2026-05-09 10:48 -3.64515 130.75155 35870 ft 418 kts 271°
2026-05-09 10:49 -3.64442 130.69229 35855 ft 433 kts 270°
2026-05-09 10:49 -3.64377 130.63113 35853 ft 446 kts 270°
2026-05-09 10:50 -3.64300 130.56812 35863 ft 458 kts 271°
2026-05-09 10:50 -3.64222 130.50397 35857 ft 462 kts 270°
2026-05-09 10:51 -3.64142 130.43951 35861 ft 463 kts 270°
2026-05-09 10:51 -3.64064 130.37507 35862 ft 463 kts 270°
2026-05-09 10:52 -3.63990 130.31061 35850 ft 463 kts 270°
2026-05-09 10:52 -3.63911 130.24654 35864 ft 463 kts 270°
2026-05-09 10:53 -3.63834 130.18202 35867 ft 463 kts 270°
2026-05-09 10:53 -3.63750 130.11758 35859 ft 463 kts 270°
2026-05-09 10:54 -3.63667 130.05323 35860 ft 462 kts 271°
2026-05-09 10:54 -3.63585 129.98885 35849 ft 462 kts 270°
2026-05-09 10:55 -3.63513 129.92451 35848 ft 462 kts 270°
2026-05-09 10:55 -3.63433 129.86015 35858 ft 462 kts 270°
2026-05-09 10:56 -3.63354 129.79577 35849 ft 462 kts 270°
2026-05-09 10:56 -3.63298 129.74226 35770 ft 463 kts 270°
2026-05-09 10:56 -3.63267 129.71004 35521 ft 463 kts 270°
2026-05-09 10:57 -3.63238 129.67778 35269 ft 463 kts 270°
2026-05-09 10:57 -3.63207 129.64553 35020 ft 464 kts 270°
2026-05-09 10:57 -3.63173 129.61324 34770 ft 464 kts 270°
2026-05-09 10:57 -3.63134 129.58089 34519 ft 465 kts 270°
2026-05-09 10:58 -3.63095 129.54848 34269 ft 466 kts 270°
2026-05-09 10:58 -3.63059 129.51601 34019 ft 467 kts 270°
2026-05-09 10:58 -3.63022 129.48342 33764 ft 468 kts 270°
2026-05-09 10:58 -3.62984 129.45085 33529 ft 468 kts 270°
2026-05-09 10:59 -3.62946 129.41823 33272 ft 469 kts 270°
2026-05-09 10:59 -3.62908 129.38557 33019 ft 470 kts 270°
2026-05-09 10:59 -3.62869 129.35286 32771 ft 470 kts 270°
2026-05-09 10:59 -3.62831 129.32004 32522 ft 471 kts 270°
2026-05-09 11:00 -3.62796 129.28722 32270 ft 472 kts 270°
2026-05-09 11:00 -3.62759 129.25443 31954 ft 470 kts 270°
2026-05-09 11:00 -3.62725 129.22185 31263 ft 467 kts 270°
2026-05-09 11:00 -3.62689 129.18948 30600 ft 463 kts 270°
2026-05-09 11:01 -3.62654 129.15737 29951 ft 460 kts 270°
2026-05-09 11:01 -3.62619 129.12543 29299 ft 457 kts 270°
2026-05-09 11:01 -3.62583 129.09379 28664 ft 453 kts 270°
2026-05-09 11:01 -3.62545 129.06239 28023 ft 450 kts 270°
2026-05-09 11:02 -3.62506 129.03118 27403 ft 446 kts 270°
2026-05-09 11:02 -3.62469 129.00024 26786 ft 443 kts 270°
2026-05-09 11:02 -3.62434 128.96956 26179 ft 439 kts 270°
2026-05-09 11:02 -3.62400 128.93916 25572 ft 435 kts 270°
2026-05-09 11:03 -3.62364 128.90905 24983 ft 430 kts 270°
2026-05-09 11:03 -3.62328 128.87966 24432 ft 426 kts 270°
2026-05-09 11:03 -3.62291 128.85019 23890 ft 420 kts 270°
2026-05-09 11:03 -3.62254 128.82116 23361 ft 415 kts 270°
2026-05-09 11:04 -3.62222 128.79241 22851 ft 410 kts 270°
2026-05-09 11:04 -3.62192 128.76402 22357 ft 406 kts 270°
2026-05-09 11:04 -3.62162 128.73595 21847 ft 401 kts 270°
2026-05-09 11:04 -3.62131 128.70821 21365 ft 398 kts 270°
2026-05-09 11:05 -3.62098 128.68061 20852 ft 395 kts 270°
2026-05-09 11:05 -3.62066 128.65372 20361 ft 391 kts 270°
2026-05-09 11:05 -3.62034 128.62615 19860 ft 388 kts 270°
2026-05-09 11:05 -3.62002 128.59927 19377 ft 385 kts 270°
2026-05-09 11:06 -3.61971 128.57258 18899 ft 381 kts 270°
2026-05-09 11:06 -3.62095 128.54632 18425 ft 377 kts 258°
2026-05-09 11:06 -3.62996 128.52191 17961 ft 374 kts 242°
2026-05-09 11:06 -3.64244 128.49921 17465 ft 371 kts 240°
2026-05-09 11:07 -3.65509 128.47680 16985 ft 369 kts 240°
2026-05-09 11:07 -3.66770 128.45450 16507 ft 366 kts 240°
2026-05-09 11:07 -3.68021 128.43236 16032 ft 364 kts 240°
2026-05-09 11:07 -3.69265 128.41035 15559 ft 362 kts 240°
2026-05-09 11:08 -3.70499 128.38849 15101 ft 359 kts 240°
2026-05-09 11:08 -3.71723 128.36678 14650 ft 357 kts 240°
2026-05-09 11:08 -3.72939 128.34520 14176 ft 355 kts 240°
2026-05-09 11:08 -3.74149 128.32372 13709 ft 353 kts 240°
2026-05-09 11:09 -3.75354 128.30236 13246 ft 351 kts 240°
2026-05-09 11:09 -3.76543 128.28103 12778 ft 349 kts 240°
2026-05-09 11:09 -3.77730 128.25991 12311 ft 347 kts 240°
2026-05-09 11:09 -3.78897 128.23918 11850 ft 346 kts 240°
2026-05-09 11:10 -3.80088 128.21803 11381 ft 344 kts 240°
2026-05-09 11:10 -3.81239 128.19753 10928 ft 341 kts 240°
2026-05-09 11:10 -3.82397 128.17685 10461 ft 339 kts 240°
2026-05-09 11:10 -3.83542 128.15637 10143 ft 333 kts 240°
2026-05-09 11:11 -3.84646 128.13656 10023 ft 316 kts 240°
2026-05-09 11:11 -3.85689 128.11782 9613 ft 302 kts 240°
2026-05-09 11:11 -3.86701 128.09960 9030 ft 298 kts 240°
2026-05-09 11:11 -3.87699 128.08156 8360 ft 295 kts 240°
2026-05-09 11:12 -3.88686 128.06368 7709 ft 292 kts 240°
2026-05-09 11:12 -3.89661 128.04610 7101 ft 286 kts 237°
2026-05-09 11:12 -3.90808 128.03007 6449 ft 282 kts 231°
2026-05-09 11:12 -3.92013 128.01471 5804 ft 279 kts 230°
2026-05-09 11:13 -3.93187 127.99982 5457 ft 265 kts 230°
2026-05-09 11:13 -3.94226 127.98513 5095 ft 254 kts 243°
2026-05-09 11:13 -3.94695 127.96840 4726 ft 249 kts 267°
2026-05-09 11:13 -3.94451 127.95141 4349 ft 247 kts 292°
2026-05-09 11:14 -3.93544 127.93708 4023 ft 244 kts 317°
2026-05-09 11:14 -3.92178 127.92714 3984 ft 245 kts 329°
2026-05-09 11:14 -3.90722 127.91820 3981 ft 246 kts 335°
2026-05-09 11:14 -3.89087 127.91473 3984 ft 241 kts
2026-05-09 11:15 -3.87543 127.92023 3981 ft 235 kts 41°
2026-05-09 11:15 -3.86598 127.93256 3977 ft 220 kts 60°
2026-05-09 11:15 -3.85654 127.94429 3795 ft 215 kts 47°
2026-05-09 11:15 -3.84594 127.95462 3540 ft 208 kts 46°
2026-05-09 11:16 -3.83600 127.96437 3259 ft 192 kts 47°
2026-05-09 11:16 -3.82680 127.97350 3009 ft 181 kts 47°
2026-05-09 11:16 -3.81814 127.98211 2773 ft 171 kts 47°
2026-05-09 11:16 -3.80994 127.99028 2559 ft 162 kts 47°
2026-05-09 11:17 -3.80233 127.99786 2362 ft 149 kts 46°
2026-05-09 11:17 -3.79515 128.00502 2163 ft 143 kts 46°
2026-05-09 11:17 -3.78816 128.01199 1971 ft 141 kts 46°
2026-05-09 11:17 -3.78125 128.01890 1786 ft 140 kts 45°
2026-05-09 11:18 -3.77435 128.02577 1607 ft 140 kts 45°
2026-05-09 11:18 -3.76752 128.03258 1419 ft 140 kts 45°
2026-05-09 11:18 -3.76057 128.03950 1230 ft 139 kts 44°
2026-05-09 11:18 -3.75379 128.04628 1043 ft 139 kts 45°
2026-05-09 11:19 -3.74681 128.05322 851 ft 140 kts 44°
2026-05-09 11:19 -3.74000 128.06001 675 ft 140 kts 45°
2026-05-09 11:19 -3.73313 128.06686 492 ft 139 kts 45°
2026-05-09 11:19 -3.72634 128.07371 306 ft 139 kts 45°
2026-05-09 11:20 -3.71949 128.08049 110 ft 137 kts 45°
2026-05-09 11:20 -3.71302 128.08692 33 ft 106 kts 45°
2026-05-09 11:20 -3.71101 128.08869 34 ft 5 kts 332°
2026-05-09 11:20 -3.71031 128.08803 36 ft 21 kts 316°
2026-05-09 11:21 -3.70906 128.08767 37 ft 18 kts 357°
2026-05-09 11:21 -3.70774 128.08766 37 ft 20 kts
2026-05-09 11:21 -3.70726 128.08767 37 ft 1 kts
2026-05-09 11:21 -3.70722 128.08768 37 ft 0 kts 14°
2026-05-09 11:22 -3.70713 128.08777 37 ft 0 kts 39°
2026-05-09 11:22 -3.70659 128.08781 37 ft 10 kts 359°
2026-05-09 11:22 -3.70625 128.08782 37 ft 0 kts
2026-05-09 11:23 -3.70623 128.08782 37 ft 0 kts